User: anonymous   Login
Location: Unspecified
(0.0000°N, 0.0000°E)
Time: 16:27:01
(UTC+00:00)
Language:

CANX 3B (BRITE-ASRA) - Orbit

View from above orbital plane
View from above orbital plane
View from above satellite
View from above satellite

Ground track
Ground track

The orbit data is extracted from the following two-line orbital elements,

1 39091U 13009F   16147.12548728  .00000024  00000-0  24029-4 0  9998
2 39091  98.5811 349.0049 0010947  21.8113 338.3536 14.34975933169984
Epoch (UTC): 26 May 2016 03:00:42
Eccentricity: 0.0010947
inclination: 98.5811°
perigee height: 767 km
apogee height: 783 km
right ascension of ascending node: 349.0049°
argument of perigee: 21.8113°
revolutions per day: 14.34975933
mean anomaly at epoch: 338.3536°
orbit number at epoch: 16998

The dashed part of the orbit path shows where the satellite is in the earth's shadow,  

DLR